星链-30131 (STARLINK-30131 )

导读 | 豆包AI

STARLINK-30131是美国太空探索技术公司SpaceX星链星座中的一颗卫星,于2023年6月4日发射入轨,属于星链互联网卫星集群的组网补充卫星。该卫星主要服务于星链全球卫星互联网项目,可在全球范围提供高速低延迟的宽带互联网接入服务,补充完善星链星座的全球覆盖能力,拓展星链服务的覆盖范围与服务稳定性。

基本信息
目录编号:
56833
目录名称:
STARLINK-30131
国际标识:
2023-079L
轨道中心:
EARTH
卫星名称:
星链-30131
卫星全名:
星链-30131 (STARLINK-30131 )
卫星状态:
在轨 (已飞行1061 天)
发射日期:
2023-06-04 UTC
国别 :
美国 (US)
星等 :
--
轨道信息
数据来源 国际轨道数据
星历时间: 2026-04-30T11:00:43+0800
11小时前
查看轨道信息
半长轴: 6875.978km
偏心率: 0.0001486
轨道倾角: 43.000°
近地点辐角 331.801°
升交点赤经 152.968°
平近点角 28.276°
近地点: 496.819km
远地点: 498.863km
周期: 94.572分钟
每日圈数: 15.226535
详细信息
固有亮度:
5
最大亮度:
0.5
卫星平台:
Starlink v2.0 mini
覆盖范围:
全球
运营商:
太空探索技术公司
运营商所在国:
美国
制造商(研发单位):
太空探索技术公司
制造商所在国:
美国
使用方式:
暂无
卫星简介
星链(Starlink)计划是由太空探索技术公司(SpaceX)提出的一个巨型低轨卫星互联网星座项目,计划在2019年至2024年间在太空搭建由约1.2万颗卫星组成的“星链”网络,其中1584颗将部署在地球上空550千米处的近地轨道,并从2020年开始工作。该卫星仍在工作。
2D轨道图
3D轨道图
轨道高度分析图
轨道倾角分析图
轨道综合分析图
查看轨道综合分析图